owner,sensor,date,latitude,longitude,vertical_datum,sea_water_practical_salinity,qcFlag 
TABS,ioos:station:wmo:42050:1,2015-12-01T00:00:00Z,28.8425,-94.2433,2.0,35.7033,11111222 
TABS,ioos:station:wmo:42050:1,2015-12-01T00:30:00Z,28.8425,-94.2433,2.0,35.7079,11111222 
TABS,ioos:station:wmo:42050:1,2015-12-01T01:00:00Z,28.8425,-94.2433,2.0,35.7156,11111222 
TABS,ioos:station:wmo:42050:1,2015-12-01T01:30:00Z,28.8425,-94.2433,2.0,35.7194,11111222 
TABS,ioos:station:wmo:42050:1,2015-12-01T02:00:00Z,28.8425,-94.2433,2.0,35.7205,11111222 
TABS,ioos:station:wmo:42050:1,2015-12-01T02:30:00Z,28.8425,-94.2433,2.0,35.7213,11111222 
TABS,ioos:station:wmo:42050:1,2015-12-01T03:00:00Z,28.8425,-94.2433,2.0,35.7229,11111222 
TABS,ioos:station:wmo:42050:1,2015-12-01T03:30:00Z,28.8425,-94.2433,2.0,35.7227,11111222 
TABS,ioos:station:wmo:42050:1,2015-12-01T04:00:00Z,28.8425,-94.2433,2.0,35.7234,11111222 
TABS,ioos:station:wmo:42050:1,2015-12-01T04:30:00Z,28.8425,-94.2433,2.0,35.7237,11111222 
TABS,ioos:station:wmo:42050:1,2015-12-01T05:00:00Z,28.8425,-94.2433,2.0,35.7218,11111222 
TABS,ioos:station:wmo:42050:1,2015-12-01T05:30:00Z,28.8425,-94.2433,2.0,35.72,11111222 
TABS,ioos:station:wmo:42050:1,2015-12-01T06:00:00Z,28.8425,-94.2433,2.0,35.722,11111222 
TABS,ioos:station:wmo:42050:1,2015-12-01T06:30:00Z,28.8425,-94.2433,2.0,35.7218,11111222 
TABS,ioos:station:wmo:42050:1,2015-12-01T07:00:00Z,28.8425,-94.2433,2.0,35.7239,11111222 
TABS,ioos:station:wmo:42050:1,2015-12-01T07:30:00Z,28.8425,-94.2433,2.0,35.7227,11111222 
TABS,ioos:station:wmo:42050:1,2015-12-01T08:00:00Z,28.8425,-94.2433,2.0,35.7202,11111222 
TABS,ioos:station:wmo:42050:1,2015-12-01T08:30:00Z,28.8425,-94.2433,2.0,35.7219,11111222 
TABS,ioos:station:wmo:42050:1,2015-12-01T09:00:00Z,28.8425,-94.2433,2.0,35.7195,11111222 
TABS,ioos:station:wmo:42050:1,2015-12-01T09:30:00Z,28.8425,-94.2433,2.0,35.7176,11111222 
TABS,ioos:station:wmo:42050:1,2015-12-01T10:00:00Z,28.8425,-94.2433,2.0,35.7163,11111222 
TABS,ioos:station:wmo:42050:1,2015-12-01T10:30:00Z,28.8425,-94.2433,2.0,35.7138,11111222 
TABS,ioos:station:wmo:42050:1,2015-12-01T11:00:00Z,28.8425,-94.2433,2.0,35.713,11111222 
TABS,ioos:station:wmo:42050:1,2015-12-01T11:30:00Z,28.8425,-94.2433,2.0,35.7105,11111222 
TABS,ioos:station:wmo:42050:1,2015-12-01T12:00:00Z,28.8425,-94.2433,2.0,35.7072,11111222 
TABS,ioos:station:wmo:42050:1,2015-12-01T12:30:00Z,28.8425,-94.2433,2.0,35.705,11111222 
TABS,ioos:station:wmo:42050:1,2015-12-01T13:00:00Z,28.8425,-94.2433,2.0,35.7018,11111222 
TABS,ioos:station:wmo:42050:1,2015-12-01T13:30:00Z,28.8425,-94.2433,2.0,35.6976,11111222 
TABS,ioos:station:wmo:42050:1,2015-12-01T14:00:00Z,28.8425,-94.2433,2.0,35.6977,11111222 
TABS,ioos:station:wmo:42050:1,2015-12-01T14:30:00Z,28.8425,-94.2433,2.0,35.6954,11111222 
TABS,ioos:station:wmo:42050:1,2015-12-01T15:00:00Z,28.8425,-94.2433,2.0,35.6858,11111222 
TABS,ioos:station:wmo:42050:1,2015-12-01T15:30:00Z,28.8425,-94.2433,2.0,35.6843,11111222 
TABS,ioos:station:wmo:42050:1,2015-12-01T16:00:00Z,28.8425,-94.2433,2.0,35.6757,11111222 
TABS,ioos:station:wmo:42050:1,2015-12-01T16:30:00Z,28.8425,-94.2433,2.0,35.6672,11111222 
TABS,ioos:station:wmo:42050:1,2015-12-01T17:00:00Z,28.8425,-94.2433,2.0,35.6613,11111222 
TABS,ioos:station:wmo:42050:1,2015-12-01T17:30:00Z,28.8425,-94.2433,2.0,35.6554,11111222 
TABS,ioos:station:wmo:42050:1,2015-12-01T18:00:00Z,28.8425,-94.2433,2.0,35.6462,11111222 
TABS,ioos:station:wmo:42050:1,2015-12-01T18:30:00Z,28.8425,-94.2433,2.0,35.6416,11111222 
TABS,ioos:station:wmo:42050:1,2015-12-01T19:00:00Z,28.8425,-94.2433,2.0,35.6393,11111222 
TABS,ioos:station:wmo:42050:1,2015-12-01T19:30:00Z,28.8425,-94.2433,2.0,35.6368,11111222 
TABS,ioos:station:wmo:42050:1,2015-12-01T20:00:00Z,28.8425,-94.2433,2.0,35.6362,11111222 
TABS,ioos:station:wmo:42050:1,2015-12-01T20:30:00Z,28.8425,-94.2433,2.0,35.633,11111222 
TABS,ioos:station:wmo:42050:1,2015-12-01T21:00:00Z,28.8425,-94.2433,2.0,35.6395,11111222 
TABS,ioos:station:wmo:42050:1,2015-12-01T21:30:00Z,28.8425,-94.2433,2.0,35.6375,11111222 
TABS,ioos:station:wmo:42050:1,2015-12-01T22:00:00Z,28.8425,-94.2433,2.0,35.6396,11111222 
TABS,ioos:station:wmo:42050:1,2015-12-01T22:30:00Z,28.8425,-94.2433,2.0,35.6438,11111222 
TABS,ioos:station:wmo:42050:1,2015-12-01T23:00:00Z,28.8425,-94.2433,2.0,35.6465,11111222 
TABS,ioos:station:wmo:42050:1,2015-12-01T23:30:00Z,28.8425,-94.2433,2.0,35.6465,11111222 
TABS,ioos:station:wmo:42050:1,2015-12-02T00:00:00Z,28.8425,-94.2433,2.0,35.6534,11111222 
TABS,ioos:station:wmo:42050:1,2015-12-02T00:30:00Z,28.8425,-94.2433,2.0,35.6574,11111222 
TABS,ioos:station:wmo:42050:1,2015-12-02T01:00:00Z,28.8425,-94.2433,2.0,35.6583,11111222 
TABS,ioos:station:wmo:42050:1,2015-12-02T01:30:00Z,28.8425,-94.2433,2.0,35.6628,11111222 
TABS,ioos:station:wmo:42050:1,2015-12-02T02:00:00Z,28.8425,-94.2433,2.0,35.6652,11111222 
TABS,ioos:station:wmo:42050:1,2015-12-02T02:30:00Z,28.8425,-94.2433,2.0,35.6649,11111222 
TABS,ioos:station:wmo:42050:1,2015-12-02T03:00:00Z,28.8425,-94.2433,2.0,35.666,11111222 
TABS,ioos:station:wmo:42050:1,2015-12-02T03:30:00Z,28.8425,-94.2433,2.0,35.6637,11111222 
TABS,ioos:station:wmo:42050:1,2015-12-02T04:00:00Z,28.8425,-94.2433,2.0,35.6616,11111222 
TABS,ioos:station:wmo:42050:1,2015-12-02T04:30:00Z,28.8425,-94.2433,2.0,35.6573,11111222 
TABS,ioos:station:wmo:42050:1,2015-12-02T05:00:00Z,28.8425,-94.2433,2.0,35.6556,11111222 
TABS,ioos:station:wmo:42050:1,2015-12-02T05:30:00Z,28.8425,-94.2433,2.0,35.6515,11111222 
TABS,ioos:station:wmo:42050:1,2015-12-02T06:00:00Z,28.8425,-94.2433,2.0,35.644,11111222 
TABS,ioos:station:wmo:42050:1,2015-12-02T06:30:00Z,28.8425,-94.2433,2.0,35.6391,11111222 
TABS,ioos:station:wmo:42050:1,2015-12-02T07:00:00Z,28.8425,-94.2433,2.0,35.6341,11111222 
TABS,ioos:station:wmo:42050:1,2015-12-02T07:30:00Z,28.8425,-94.2433,2.0,35.6284,11111222 
TABS,ioos:station:wmo:42050:1,2015-12-02T08:00:00Z,28.8425,-94.2433,2.0,35.6247,11111222 
TABS,ioos:station:wmo:42050:1,2015-12-02T08:30:00Z,28.8425,-94.2433,2.0,35.6192,11111222 
TABS,ioos:station:wmo:42050:1,2015-12-02T09:00:00Z,28.8425,-94.2433,2.0,35.6131,11111222 
TABS,ioos:station:wmo:42050:1,2015-12-02T09:30:00Z,28.8425,-94.2433,2.0,35.6036,11111222 
TABS,ioos:station:wmo:42050:1,2015-12-02T10:00:00Z,28.8425,-94.2433,2.0,35.605,11111222 
TABS,ioos:station:wmo:42050:1,2015-12-02T10:30:00Z,28.8425,-94.2433,2.0,35.5967,11111222 
TABS,ioos:station:wmo:42050:1,2015-12-02T11:00:00Z,28.8425,-94.2433,2.0,35.5935,11111222 
TABS,ioos:station:wmo:42050:1,2015-12-02T11:30:00Z,28.8425,-94.2433,2.0,35.5898,11111222 
TABS,ioos:station:wmo:42050:1,2015-12-02T12:00:00Z,28.8425,-94.2433,2.0,35.5844,11111222 
TABS,ioos:station:wmo:42050:1,2015-12-02T12:30:00Z,28.8425,-94.2433,2.0,35.5852,11111222 
TABS,ioos:station:wmo:42050:1,2015-12-02T13:00:00Z,28.8425,-94.2433,2.0,35.5832,11111222 
TABS,ioos:station:wmo:42050:1,2015-12-02T13:30:00Z,28.8425,-94.2433,2.0,35.5821,11111222 
TABS,ioos:station:wmo:42050:1,2015-12-02T14:00:00Z,28.8425,-94.2433,2.0,35.5838,11111222 
TABS,ioos:station:wmo:42050:1,2015-12-02T14:30:00Z,28.8425,-94.2433,2.0,35.5783,11111222 
TABS,ioos:station:wmo:42050:1,2015-12-02T15:00:00Z,28.8425,-94.2433,2.0,35.5772,11111222 
TABS,ioos:station:wmo:42050:1,2015-12-02T15:30:00Z,28.8425,-94.2433,2.0,35.578,11111222 
TABS,ioos:station:wmo:42050:1,2015-12-02T16:00:00Z,28.8425,-94.2433,2.0,35.5804,11111222 
TABS,ioos:station:wmo:42050:1,2015-12-02T16:30:00Z,28.8425,-94.2433,2.0,35.5807,11111222 
TABS,ioos:station:wmo:42050:1,2015-12-02T17:00:00Z,28.8425,-94.2433,2.0,35.571,11111222 
TABS,ioos:station:wmo:42050:1,2015-12-02T17:30:00Z,28.8425,-94.2433,2.0,35.5646,11111222 
TABS,ioos:station:wmo:42050:1,2015-12-02T18:00:00Z,28.8425,-94.2433,2.0,35.5546,11111222 
TABS,ioos:station:wmo:42050:1,2015-12-02T18:30:00Z,28.8425,-94.2433,2.0,35.543,11111222 
TABS,ioos:station:wmo:42050:1,2015-12-02T19:00:00Z,28.8425,-94.2433,2.0,35.5436,11111222 
TABS,ioos:station:wmo:42050:1,2015-12-02T19:30:00Z,28.8425,-94.2433,2.0,35.5325,11111222 
TABS,ioos:station:wmo:42050:1,2015-12-02T20:00:00Z,28.8425,-94.2433,2.0,35.5301,11111222 
TABS,ioos:station:wmo:42050:1,2015-12-02T20:30:00Z,28.8425,-94.2433,2.0,35.5246,11111222 
TABS,ioos:station:wmo:42050:1,2015-12-02T21:00:00Z,28.8425,-94.2433,2.0,35.5262,11111222 
TABS,ioos:station:wmo:42050:1,2015-12-02T21:30:00Z,28.8425,-94.2433,2.0,35.5227,11111222 
TABS,ioos:station:wmo:42050:1,2015-12-02T22:00:00Z,28.8425,-94.2433,2.0,35.5209,11111222 
TABS,ioos:station:wmo:42050:1,2015-12-02T22:30:00Z,28.8425,-94.2433,2.0,35.5204,11111222 
TABS,ioos:station:wmo:42050:1,2015-12-02T23:00:00Z,28.8425,-94.2433,2.0,35.514,11111222 
TABS,ioos:station:wmo:42050:1,2015-12-02T23:30:00Z,28.8425,-94.2433,2.0,35.5223,11111222 
TABS,ioos:station:wmo:42050:1,2015-12-03T00:00:00Z,28.8425,-94.2433,2.0,35.5191,11111222 
TABS,ioos:station:wmo:42050:1,2015-12-03T00:30:00Z,28.8425,-94.2433,2.0,35.5172,11111222 
TABS,ioos:station:wmo:42050:1,2015-12-03T01:00:00Z,28.8425,-94.2433,2.0,35.5198,11111222 
TABS,ioos:station:wmo:42050:1,2015-12-03T01:30:00Z,28.8425,-94.2433,2.0,35.519,11111222 
TABS,ioos:station:wmo:42050:1,2015-12-03T02:00:00Z,28.8425,-94.2433,2.0,35.5221,11111222 
TABS,ioos:station:wmo:42050:1,2015-12-03T02:30:00Z,28.8425,-94.2433,2.0,35.5245,11111222 
TABS,ioos:station:wmo:42050:1,2015-12-03T03:00:00Z,28.8425,-94.2433,2.0,35.5235,11111222 
TABS,ioos:station:wmo:42050:1,2015-12-03T03:30:00Z,28.8425,-94.2433,2.0,35.5225,11111222 
TABS,ioos:station:wmo:42050:1,2015-12-03T04:00:00Z,28.8425,-94.2433,2.0,35.5199,11111222 
TABS,ioos:station:wmo:42050:1,2015-12-03T04:30:00Z,28.8425,-94.2433,2.0,35.5147,11111222 
TABS,ioos:station:wmo:42050:1,2015-12-03T05:00:00Z,28.8425,-94.2433,2.0,35.5153,11111222 
TABS,ioos:station:wmo:42050:1,2015-12-03T05:30:00Z,28.8425,-94.2433,2.0,35.5156,11111222 
TABS,ioos:station:wmo:42050:1,2015-12-03T06:00:00Z,28.8425,-94.2433,2.0,35.5095,11111222 
TABS,ioos:station:wmo:42050:1,2015-12-03T06:30:00Z,28.8425,-94.2433,2.0,35.4947,11111222 
TABS,ioos:station:wmo:42050:1,2015-12-03T07:00:00Z,28.8425,-94.2433,2.0,35.4995,11111222 
TABS,ioos:station:wmo:42050:1,2015-12-03T07:30:00Z,28.8425,-94.2433,2.0,35.4994,11111222 
TABS,ioos:station:wmo:42050:1,2015-12-03T08:00:00Z,28.8425,-94.2433,2.0,35.4881,11111222 
TABS,ioos:station:wmo:42050:1,2015-12-03T08:30:00Z,28.8425,-94.2433,2.0,35.48,11111222 
TABS,ioos:station:wmo:42050:1,2015-12-03T09:00:00Z,28.8425,-94.2433,2.0,35.4754,11111222 
TABS,ioos:station:wmo:42050:1,2015-12-03T09:30:00Z,28.8425,-94.2433,2.0,35.4673,11111222 
TABS,ioos:station:wmo:42050:1,2015-12-03T10:00:00Z,28.8425,-94.2433,2.0,35.4646,11111222 
TABS,ioos:station:wmo:42050:1,2015-12-03T10:30:00Z,28.8425,-94.2433,2.0,35.4607,11111222 
TABS,ioos:station:wmo:42050:1,2015-12-03T11:00:00Z,28.8425,-94.2433,2.0,35.4658,11111222 
TABS,ioos:station:wmo:42050:1,2015-12-03T11:30:00Z,28.8425,-94.2433,2.0,35.4609,11111222 
TABS,ioos:station:wmo:42050:1,2015-12-03T12:00:00Z,28.8425,-94.2433,2.0,35.4615,11111222 
TABS,ioos:station:wmo:42050:1,2015-12-03T12:30:00Z,28.8425,-94.2433,2.0,35.4657,11111222 
TABS,ioos:station:wmo:42050:1,2015-12-03T13:00:00Z,28.8425,-94.2433,2.0,35.4647,11111222 
TABS,ioos:station:wmo:42050:1,2015-12-03T13:30:00Z,28.8425,-94.2433,2.0,35.4622,11111222 
TABS,ioos:station:wmo:42050:1,2015-12-03T14:00:00Z,28.8425,-94.2433,2.0,35.4592,11111222 
TABS,ioos:station:wmo:42050:1,2015-12-03T14:30:00Z,28.8425,-94.2433,2.0,35.4596,11111222 
TABS,ioos:station:wmo:42050:1,2015-12-03T15:00:00Z,28.8425,-94.2433,2.0,35.4563,11111222 
TABS,ioos:station:wmo:42050:1,2015-12-03T15:30:00Z,28.8425,-94.2433,2.0,35.4542,11111222 
TABS,ioos:station:wmo:42050:1,2015-12-03T16:00:00Z,28.8425,-94.2433,2.0,35.4522,11111222 
TABS,ioos:station:wmo:42050:1,2015-12-03T16:30:00Z,28.8425,-94.2433,2.0,35.4504,11111222 
TABS,ioos:station:wmo:42050:1,2015-12-03T17:00:00Z,28.8425,-94.2433,2.0,35.4461,11111222 
TABS,ioos:station:wmo:42050:1,2015-12-03T17:30:00Z,28.8425,-94.2433,2.0,35.4419,11111222 
TABS,ioos:station:wmo:42050:1,2015-12-03T18:00:00Z,28.8425,-94.2433,2.0,35.4382,11111222 
TABS,ioos:station:wmo:42050:1,2015-12-03T18:30:00Z,28.8425,-94.2433,2.0,35.4358,11111222 
TABS,ioos:station:wmo:42050:1,2015-12-03T19:00:00Z,28.8425,-94.2433,2.0,35.4334,11111222 
TABS,ioos:station:wmo:42050:1,2015-12-03T19:30:00Z,28.8425,-94.2433,2.0,35.4343,11111222 
TABS,ioos:station:wmo:42050:1,2015-12-03T20:00:00Z,28.8425,-94.2433,2.0,35.4314,11111222 
TABS,ioos:station:wmo:42050:1,2015-12-03T20:30:00Z,28.8425,-94.2433,2.0,35.4331,11111222 
TABS,ioos:station:wmo:42050:1,2015-12-03T21:00:00Z,28.8425,-94.2433,2.0,35.4295,11111222 
TABS,ioos:station:wmo:42050:1,2015-12-03T21:30:00Z,28.8425,-94.2433,2.0,35.4257,11111222 
TABS,ioos:station:wmo:42050:1,2015-12-03T22:00:00Z,28.8425,-94.2433,2.0,35.4229,11111222 
TABS,ioos:station:wmo:42050:1,2015-12-03T22:30:00Z,28.8425,-94.2433,2.0,35.4229,11111222 
TABS,ioos:station:wmo:42050:1,2015-12-03T23:00:00Z,28.8425,-94.2433,2.0,35.4236,11111222 
TABS,ioos:station:wmo:42050:1,2015-12-03T23:30:00Z,28.8425,-94.2433,2.0,35.4281,11111222 
TABS,ioos:station:wmo:42050:1,2015-12-04T00:00:00Z,28.8425,-94.2433,2.0,35.4263,11111222 
TABS,ioos:station:wmo:42050:1,2015-12-04T00:30:00Z,28.8425,-94.2433,2.0,35.422,11111222 
TABS,ioos:station:wmo:42050:1,2015-12-04T01:00:00Z,28.8425,-94.2433,2.0,35.4253,11111222 
TABS,ioos:station:wmo:42050:1,2015-12-04T01:30:00Z,28.8425,-94.2433,2.0,35.4273,11111222 
TABS,ioos:station:wmo:42050:1,2015-12-04T02:00:00Z,28.8425,-94.2433,2.0,35.4272,11111222 
TABS,ioos:station:wmo:42050:1,2015-12-04T02:30:00Z,28.8425,-94.2433,2.0,35.4278,11111222 
TABS,ioos:station:wmo:42050:1,2015-12-04T03:00:00Z,28.8425,-94.2433,2.0,35.43,11111222 
TABS,ioos:station:wmo:42050:1,2015-12-04T03:30:00Z,28.8425,-94.2433,2.0,35.4292,11111222 
TABS,ioos:station:wmo:42050:1,2015-12-04T04:00:00Z,28.8425,-94.2433,2.0,35.4278,11111222 
TABS,ioos:station:wmo:42050:1,2015-12-04T04:30:00Z,28.8425,-94.2433,2.0,35.4275,11111222 
TABS,ioos:station:wmo:42050:1,2015-12-04T05:00:00Z,28.8425,-94.2433,2.0,35.4332,11111222 
TABS,ioos:station:wmo:42050:1,2015-12-04T05:30:00Z,28.8425,-94.2433,2.0,35.4265,11111222 
TABS,ioos:station:wmo:42050:1,2015-12-04T06:00:00Z,28.8425,-94.2433,2.0,35.4256,11111222 
TABS,ioos:station:wmo:42050:1,2015-12-04T06:30:00Z,28.8425,-94.2433,2.0,35.4248,11111222 
TABS,ioos:station:wmo:42050:1,2015-12-04T07:00:00Z,28.8425,-94.2433,2.0,35.4252,11111222 
TABS,ioos:station:wmo:42050:1,2015-12-04T07:30:00Z,28.8425,-94.2433,2.0,35.4237,11111222 
TABS,ioos:station:wmo:42050:1,2015-12-04T08:00:00Z,28.8425,-94.2433,2.0,35.4229,11111222 
TABS,ioos:station:wmo:42050:1,2015-12-04T08:30:00Z,28.8425,-94.2433,2.0,35.425,11111222 
TABS,ioos:station:wmo:42050:1,2015-12-04T09:00:00Z,28.8425,-94.2433,2.0,35.427,11111222 
TABS,ioos:station:wmo:42050:1,2015-12-04T09:30:00Z,28.8425,-94.2433,2.0,35.4249,11111222 
TABS,ioos:station:wmo:42050:1,2015-12-04T10:00:00Z,28.8425,-94.2433,2.0,35.4267,11111222 
TABS,ioos:station:wmo:42050:1,2015-12-04T10:30:00Z,28.8425,-94.2433,2.0,35.4301,11111222 
TABS,ioos:station:wmo:42050:1,2015-12-04T11:00:00Z,28.8425,-94.2433,2.0,35.4258,11111222 
TABS,ioos:station:wmo:42050:1,2015-12-04T11:30:00Z,28.8425,-94.2433,2.0,35.432,11111222 
TABS,ioos:station:wmo:42050:1,2015-12-04T12:00:00Z,28.8425,-94.2433,2.0,35.4344,11111222 
TABS,ioos:station:wmo:42050:1,2015-12-04T12:30:00Z,28.8425,-94.2433,2.0,35.4385,11111222 
TABS,ioos:station:wmo:42050:1,2015-12-04T13:00:00Z,28.8425,-94.2433,2.0,35.442,11111222 
TABS,ioos:station:wmo:42050:1,2015-12-04T13:30:00Z,28.8425,-94.2433,2.0,35.445,11111222 
TABS,ioos:station:wmo:42050:1,2015-12-04T14:00:00Z,28.8425,-94.2433,2.0,35.4446,11111222 
TABS,ioos:station:wmo:42050:1,2015-12-04T14:30:00Z,28.8425,-94.2433,2.0,35.4452,11111222 
TABS,ioos:station:wmo:42050:1,2015-12-04T15:00:00Z,28.8425,-94.2433,2.0,35.4473,11111222 
TABS,ioos:station:wmo:42050:1,2015-12-04T15:30:00Z,28.8425,-94.2433,2.0,35.4458,11111222 
TABS,ioos:station:wmo:42050:1,2015-12-04T16:00:00Z,28.8425,-94.2433,2.0,35.4477,11111222 
TABS,ioos:station:wmo:42050:1,2015-12-04T16:30:00Z,28.8425,-94.2433,2.0,35.4532,11111222 
TABS,ioos:station:wmo:42050:1,2015-12-04T17:00:00Z,28.8425,-94.2433,2.0,35.454,11111222 
TABS,ioos:station:wmo:42050:1,2015-12-04T17:30:00Z,28.8425,-94.2433,2.0,35.4563,11111222 
TABS,ioos:station:wmo:42050:1,2015-12-04T18:00:00Z,28.8425,-94.2433,2.0,35.4596,11111222 
TABS,ioos:station:wmo:42050:1,2015-12-04T18:30:00Z,28.8425,-94.2433,2.0,35.4599,11111222 
TABS,ioos:station:wmo:42050:1,2015-12-04T19:00:00Z,28.8425,-94.2433,2.0,35.46,11111222 
TABS,ioos:station:wmo:42050:1,2015-12-04T19:30:00Z,28.8425,-94.2433,2.0,35.4647,11111222 
TABS,ioos:station:wmo:42050:1,2015-12-04T20:00:00Z,28.8425,-94.2433,2.0,35.4653,11111222 
TABS,ioos:station:wmo:42050:1,2015-12-04T20:30:00Z,28.8425,-94.2433,2.0,35.4671,11111222 
TABS,ioos:station:wmo:42050:1,2015-12-04T21:00:00Z,28.8425,-94.2433,2.0,35.468,11111222 
TABS,ioos:station:wmo:42050:1,2015-12-04T21:30:00Z,28.8425,-94.2433,2.0,35.4679,11111222 
TABS,ioos:station:wmo:42050:1,2015-12-04T22:00:00Z,28.8425,-94.2433,2.0,35.4693,11111222 
TABS,ioos:station:wmo:42050:1,2015-12-04T22:30:00Z,28.8425,-94.2433,2.0,35.472,11111222 
TABS,ioos:station:wmo:42050:1,2015-12-04T23:00:00Z,28.8425,-94.2433,2.0,35.474,11111222 
TABS,ioos:station:wmo:42050:1,2015-12-04T23:30:00Z,28.8425,-94.2433,2.0,35.474,11111222 
TABS,ioos:station:wmo:42050:1,2015-12-05T00:00:00Z,28.8425,-94.2433,2.0,35.4766,11111222 
TABS,ioos:station:wmo:42050:1,2015-12-05T00:30:00Z,28.8425,-94.2433,2.0,35.4802,11111222 
TABS,ioos:station:wmo:42050:1,2015-12-05T01:00:00Z,28.8425,-94.2433,2.0,35.4799,11111222 
TABS,ioos:station:wmo:42050:1,2015-12-05T01:30:00Z,28.8425,-94.2433,2.0,35.4858,11111222 
TABS,ioos:station:wmo:42050:1,2015-12-05T02:00:00Z,28.8425,-94.2433,2.0,35.4858,11111222 
TABS,ioos:station:wmo:42050:1,2015-12-05T02:30:00Z,28.8425,-94.2433,2.0,35.4863,11111222 
TABS,ioos:station:wmo:42050:1,2015-12-05T03:00:00Z,28.8425,-94.2433,2.0,35.4852,11111222 
TABS,ioos:station:wmo:42050:1,2015-12-05T03:30:00Z,28.8425,-94.2433,2.0,35.4871,11111222 
TABS,ioos:station:wmo:42050:1,2015-12-05T04:00:00Z,28.8425,-94.2433,2.0,35.4873,11111222 
TABS,ioos:station:wmo:42050:1,2015-12-05T04:30:00Z,28.8425,-94.2433,2.0,35.4947,11111222 
TABS,ioos:station:wmo:42050:1,2015-12-05T05:00:00Z,28.8425,-94.2433,2.0,35.4948,11111222 
TABS,ioos:station:wmo:42050:1,2015-12-05T05:30:00Z,28.8425,-94.2433,2.0,35.4937,11111222 
TABS,ioos:station:wmo:42050:1,2015-12-05T06:00:00Z,28.8425,-94.2433,2.0,35.4963,11111222 
TABS,ioos:station:wmo:42050:1,2015-12-05T06:30:00Z,28.8425,-94.2433,2.0,35.4967,11111222 
TABS,ioos:station:wmo:42050:1,2015-12-05T07:00:00Z,28.8425,-94.2433,2.0,35.4982,11111222 
TABS,ioos:station:wmo:42050:1,2015-12-05T07:30:00Z,28.8425,-94.2433,2.0,35.499,11111222 
TABS,ioos:station:wmo:42050:1,2015-12-05T08:00:00Z,28.8425,-94.2433,2.0,35.4998,11111222 
TABS,ioos:station:wmo:42050:1,2015-12-05T08:30:00Z,28.8425,-94.2433,2.0,35.5006,11111222 
TABS,ioos:station:wmo:42050:1,2015-12-05T09:00:00Z,28.8425,-94.2433,2.0,35.4974,11111222 
TABS,ioos:station:wmo:42050:1,2015-12-05T09:30:00Z,28.8425,-94.2433,2.0,35.4989,11111222 
TABS,ioos:station:wmo:42050:1,2015-12-05T10:00:00Z,28.8425,-94.2433,2.0,35.4953,11111222 
TABS,ioos:station:wmo:42050:1,2015-12-05T10:30:00Z,28.8425,-94.2433,2.0,35.4988,11111222 
TABS,ioos:station:wmo:42050:1,2015-12-05T11:00:00Z,28.8425,-94.2433,2.0,35.497,11111222 
TABS,ioos:station:wmo:42050:1,2015-12-05T11:30:00Z,28.8425,-94.2433,2.0,35.4946,11111222 
TABS,ioos:station:wmo:42050:1,2015-12-05T12:00:00Z,28.8425,-94.2433,2.0,35.4959,11111222 
TABS,ioos:station:wmo:42050:1,2015-12-05T12:30:00Z,28.8425,-94.2433,2.0,35.4893,11111222 
TABS,ioos:station:wmo:42050:1,2015-12-05T13:00:00Z,28.8425,-94.2433,2.0,35.4907,11111222 
TABS,ioos:station:wmo:42050:1,2015-12-05T13:30:00Z,28.8425,-94.2433,2.0,35.4898,11111222 
TABS,ioos:station:wmo:42050:1,2015-12-05T14:00:00Z,28.8425,-94.2433,2.0,35.4898,11111222 
TABS,ioos:station:wmo:42050:1,2015-12-05T14:30:00Z,28.8425,-94.2433,2.0,35.489,11111222 
TABS,ioos:station:wmo:42050:1,2015-12-05T15:00:00Z,28.8425,-94.2433,2.0,35.4889,11111222 
TABS,ioos:station:wmo:42050:1,2015-12-05T15:30:00Z,28.8425,-94.2433,2.0,35.4884,11111222 
TABS,ioos:station:wmo:42050:1,2015-12-05T16:00:00Z,28.8425,-94.2433,2.0,35.4992,11111222 
TABS,ioos:station:wmo:42050:1,2015-12-05T16:30:00Z,28.8425,-94.2433,2.0,35.4995,11111222 
TABS,ioos:station:wmo:42050:1,2015-12-05T17:00:00Z,28.8425,-94.2433,2.0,35.4974,11111222 
TABS,ioos:station:wmo:42050:1,2015-12-05T17:30:00Z,28.8425,-94.2433,2.0,35.5011,11111222 
TABS,ioos:station:wmo:42050:1,2015-12-05T18:00:00Z,28.8425,-94.2433,2.0,35.4973,11111222 
TABS,ioos:station:wmo:42050:1,2015-12-05T18:30:00Z,28.8425,-94.2433,2.0,35.4942,11111222 
TABS,ioos:station:wmo:42050:1,2015-12-05T19:00:00Z,28.8425,-94.2433,2.0,35.4934,11111222 
TABS,ioos:station:wmo:42050:1,2015-12-05T19:30:00Z,28.8425,-94.2433,2.0,35.4892,11111222 
TABS,ioos:station:wmo:42050:1,2015-12-05T20:00:00Z,28.8425,-94.2433,2.0,35.4955,11111222 
TABS,ioos:station:wmo:42050:1,2015-12-05T20:30:00Z,28.8425,-94.2433,2.0,35.4975,11111222 
TABS,ioos:station:wmo:42050:1,2015-12-05T21:00:00Z,28.8425,-94.2433,2.0,35.4911,11111222 
TABS,ioos:station:wmo:42050:1,2015-12-05T21:30:00Z,28.8425,-94.2433,2.0,35.4949,11111222 
TABS,ioos:station:wmo:42050:1,2015-12-05T22:00:00Z,28.8425,-94.2433,2.0,35.4959,11111222 
TABS,ioos:station:wmo:42050:1,2015-12-05T22:30:00Z,28.8425,-94.2433,2.0,35.4918,11111222 
TABS,ioos:station:wmo:42050:1,2015-12-05T23:00:00Z,28.8425,-94.2433,2.0,35.4953,11111222 
TABS,ioos:station:wmo:42050:1,2015-12-05T23:30:00Z,28.8425,-94.2433,2.0,35.4994,11111222 
TABS,ioos:station:wmo:42050:1,2015-12-06T00:00:00Z,28.8425,-94.2433,2.0,35.5017,11111222 
TABS,ioos:station:wmo:42050:1,2015-12-06T00:30:00Z,28.8425,-94.2433,2.0,35.5094,11111222 
TABS,ioos:station:wmo:42050:1,2015-12-06T01:00:00Z,28.8425,-94.2433,2.0,35.5188,11111222 
TABS,ioos:station:wmo:42050:1,2015-12-06T01:30:00Z,28.8425,-94.2433,2.0,35.5268,11111222 
TABS,ioos:station:wmo:42050:1,2015-12-06T02:00:00Z,28.8425,-94.2433,2.0,35.5306,11111222 
TABS,ioos:station:wmo:42050:1,2015-12-06T02:30:00Z,28.8425,-94.2433,2.0,35.5457,11111222 
TABS,ioos:station:wmo:42050:1,2015-12-06T03:00:00Z,28.8425,-94.2433,2.0,35.5558,11111222 
TABS,ioos:station:wmo:42050:1,2015-12-06T03:30:00Z,28.8425,-94.2433,2.0,35.5639,11111222 
TABS,ioos:station:wmo:42050:1,2015-12-06T04:00:00Z,28.8425,-94.2433,2.0,35.5719,11111222 
TABS,ioos:station:wmo:42050:1,2015-12-06T04:30:00Z,28.8425,-94.2433,2.0,35.5751,11111222 
TABS,ioos:station:wmo:42050:1,2015-12-06T05:00:00Z,28.8425,-94.2433,2.0,35.5801,11111222 
TABS,ioos:station:wmo:42050:1,2015-12-06T05:30:00Z,28.8425,-94.2433,2.0,35.5917,11111222 
TABS,ioos:station:wmo:42050:1,2015-12-06T06:00:00Z,28.8425,-94.2433,2.0,35.5936,11111222 
TABS,ioos:station:wmo:42050:1,2015-12-06T06:30:00Z,28.8425,-94.2433,2.0,35.5955,11111222 
TABS,ioos:station:wmo:42050:1,2015-12-06T07:00:00Z,28.8425,-94.2433,2.0,35.5851,11111222 
TABS,ioos:station:wmo:42050:1,2015-12-06T07:30:00Z,28.8425,-94.2433,2.0,35.575,11111222 
TABS,ioos:station:wmo:42050:1,2015-12-06T08:00:00Z,28.8425,-94.2433,2.0,35.565,11111222 
TABS,ioos:station:wmo:42050:1,2015-12-06T08:30:00Z,28.8425,-94.2433,2.0,35.5559,11111222 
TABS,ioos:station:wmo:42050:1,2015-12-06T09:00:00Z,28.8425,-94.2433,2.0,35.5443,11111222 
TABS,ioos:station:wmo:42050:1,2015-12-06T09:30:00Z,28.8425,-94.2433,2.0,35.5306,11111222 
TABS,ioos:station:wmo:42050:1,2015-12-06T10:00:00Z,28.8425,-94.2433,2.0,35.521,11111222 
TABS,ioos:station:wmo:42050:1,2015-12-06T10:30:00Z,28.8425,-94.2433,2.0,35.5136,11111222 
TABS,ioos:station:wmo:42050:1,2015-12-06T11:00:00Z,28.8425,-94.2433,2.0,35.4992,11111222 
TABS,ioos:station:wmo:42050:1,2015-12-06T11:30:00Z,28.8425,-94.2433,2.0,35.4955,11111222 
TABS,ioos:station:wmo:42050:1,2015-12-06T12:00:00Z,28.8425,-94.2433,2.0,35.4973,11111222 
TABS,ioos:station:wmo:42050:1,2015-12-06T12:30:00Z,28.8425,-94.2433,2.0,35.4929,11111222 